Dewpoint
67 69 71 72 72 72 72 71 72 72 73 73 72 72 72 72 72 72 72 72 72 72 72 72 72 72 71 70 70 70 69 69 70 70 69 68 68 68 68 68 68 66 69
68 70 71 71 72 72 71 72 72 72 73 73 72 72 72 72 72 72 72 72 72 72 71 71 72 71 70 70 70 69 68 69 68 68 69 68 68 68 68 68 68 67 69
68 70 70 71 72 72 72 72 72 73 73 73 72 72 72 72 72 72 72 71 71 72 71 70 71 70 70 70 70 70 69 69 68 68 68 64 65 67 67 68 68 68 67
69 69 70 71 71 71 71 72 72 72 72 72 72 72 72 72 72 72 72 70 70 71 71 70 70 70 70 69 69 69 69 68 68 67 64 64 64 67 67 67 67 67 66
68 69 70 70 70 71 71 72 72 71 72 72 72 72 72 72 72 72 71 70 69 69 70 69 69 70 69 69 68 68 68 67 66 64 64 64 63 65 66 66 66 65 66
67 69 69 69 70 71 71 72 72 71 71 71 71 72 72 72 72 71 70 69 68 69 69 68 69 69 68 67 67 67 66 66 64 63 63 64 63 65 65 64 65 64 65
66 66 68 69 70 71 71 71 71 71 70 70 71 71 71 71 70 69 69 69 68 68 69 69 69 68 67 66 66 65 65 64 62 61 61 62 62 64 64 63 63 64 63
65 65 67 70 70 70 71 70 70 69 70 69 70 70 70 70 70 69 69 68 68 68 68 68 67 68 66 66 65 64 64 63 61 60 60 61 64 63 62 62 62 61 61
65 64 65 67 69 70 69 69 69 68 68 68 68 69 68 68 68 69 69 68 67 67 68 68 67 66 66 64 64 63 62 62 60 60 60 61 64 62 61 61 60 60 60
64 64 64 65 66 68 69 68 68 68 67 67 66 66 65 65 66 66 67 67 67 67 67 66 66 65 64 63 63 62 62 61 59 60 60 61 63 61 61 60 60 58 57
65 64 64 64 64 65 66 68 68 68 66 66 66 66 65 64 64 64 65 65 66 65 65 65 65 64 63 63 62 61 59 58 58 59 59 63 62 60 61 58 59 59 58
64 64 63 63 62 62 65 67 67 68 66 66 65 65 64 63 63 64 64 64 65 64 64 64 63 63 61 59 59 58 56 57 57 58 59 62 61 60 60 60 58 58 59
63 63 63 61 61 61 65 66 66 66 66 66 65 64 63 62 63 64 63 64 64 63 63 63 61 59 58 58 56 55 55 55 56 57 59 61 61 59 60 60 59 59 59
58 61 61 61 60 61 64 64 64 63 64 64 64 62 62 62 61 63 63 63 63 62 62 62 58 57 57 56 54 54 54 54 55 56 59 61 61 60 59 59 59 57 58
57 59 60 61 61 61 62 62 63 63 63 62 62 62 61 61 61 62 63 62 63 63 62 57 56 56 55 54 54 54 54 54 55 55 57 59 59 60 60 59 59 57 59
57 57 59 60 61 62 62 62 62 63 63 62 62 61 61 61 62 62 63 62 62 61 61 56 55 54 54 54 53 54 54 54 55 55 56 58 59 60 59 58 58 58 58
56 58 59 59 60 62 62 61 62 62 63 62 62 61 61 60 61 63 62 61 61 61 59 55 54 54 53 53 53 53 54 54 54 55 56 57 57 58 59 59 59 57 57
56 58 59 60 59 61 62 61 61 61 62 62 62 61 61 61 62 62 61 61 61 60 58 55 53 53 53 53 52 53 54 54 54 55 56 56 56 56 58 59 59 59 57
55 58 58 59 59 59 58 60 61 61 61 61 62 61 61 62 61 61 61 60 61 58 57 55 53 54 52 52 52 53 53 54 54 54 55 55 56 56 56 58 58 58 58
55 58 58 58 58 57 57 58 59 60 61 61 61 61 62 62 60 60 59 58 58 57 56 55 53 54 52 52 52 52 53 54 54 54 54 54 55 55 55 56 57 56 57
56 57 58 58 57 57 58 58 58 59 59 60 61 62 62 62 60 59 57 56 57 55 54 53 53 53 53 53 52 51 51 53 53 53 54 54 54 54 55 55 55 55 56
56 57 58 57 57 58 58 59 57 57 57 59 61 62 62 62 60 59 57 56 55 55 53 52 52 52 52 52 50 50 49 50 52 52 53 53 53 54 54 54 54 54 53
55 56 57 57 57 57 57 57 55 55 55 56 57 59 61 61 60 59 57 56 54 55 53 52 52 51 51 52 51 50 48 47 49 51 52 53 53 53 53 53 53 53 53
55 56 56 56 57 57 56 55 54 53 52 54 55 57 58 60 60 59 57 55 54 53 52 50 50 51 51 50 51 50 51 51 49 46 49 52 52 52 52 52 53 53 53
55 55 56 56 56 56 55 55 54 53 53 54 54 55 56 57 60 59 57 56 52 52 52 49 50 50 51 51 49 51 51 52 49 46 46 47 51 52 52 52 52 52 52
55 55 55 55 55 55 54 54 53 52 53 53 53 54 55 56 58 60 58 56 53 54 53 49 52 51 52 51 50 51 50 49 50 49 47 47 48 49 52 53 53 53 53
Lifted_Index
-4 -4 -4 -4 -4 -4 -4 -4 -5 -5 -5 -5 -5 -5 -5 -5 -5 -5 -5 -5 -5 -5 -5 -5 -5 -5 -5 -5 -4 -4 -3 -3 -3 -2 -2 -1 -1 -0 -0 -0 -0 -0 -0
-4 -4 -4 -4 -4 -4 -4 -4 -4 -5 -5 -5 -5 -5 -5 -5 -5 -5 -5 -5 -5 -5 -5 -5 -5 -5 -5 -5 -4 -4 -3 -3 -2 -2 -1 -1 -0 -0 -0 -0 -0 -0 -0
-4 -4 -5 -5 -5 -4 -4 -4 -4 -5 -5 -5 -6 -6 -6 -6 -6 -6 -6 -6 -6 -5 -5 -5 -5 -5 -4 -4 -4 -4 -3 -3 -2 -2 -1 -0 0 0 0 -0 -0 -0 -0
-5 -5 -5 -5 -5 -5 -4 -4 -4 -5 -5 -5 -6 -6 -6 -6 -6 -6 -6 -6 -6 -6 -5 -5 -5 -4 -4 -4 -4 -4 -3 -2 -2 -1 -0 0 0 0 -0 -0 -0 -0 -0
-4 -5 -5 -5 -5 -5 -4 -4 -4 -5 -5 -5 -6 -6 -6 -6 -6 -6 -6 -6 -5 -5 -5 -5 -4 -4 -4 -4 -4 -3 -3 -2 -1 -1 -0 0 0 0 0 0 0 -0 -0
-4 -4 -4 -4 -5 -4 -4 -4 -4 -5 -5 -5 -6 -6 -6 -6 -6 -5 -5 -5 -5 -5 -5 -4 -4 -4 -4 -3 -3 -3 -2 -1 -1 -0 -0 0 0 1 1 1 1 0 0
-3 -4 -4 -4 -5 -4 -4 -4 -4 -5 -5 -5 -5 -6 -6 -6 -5 -5 -4 -4 -4 -4 -5 -4 -4 -4 -3 -3 -2 -2 -1 -1 -0 0 0 0 1 1 1 1 2 1 1
-3 -3 -4 -4 -5 -5 -4 -4 -4 -4 -4 -5 -5 -5 -5 -5 -5 -5 -4 -4 -4 -4 -4 -4 -3 -3 -3 -3 -2 -2 -1 -1 0 1 1 1 1 1 2 2 2 3 3
-3 -3 -4 -4 -5 -5 -5 -4 -4 -4 -4 -4 -4 -4 -4 -4 -4 -4 -4 -4 -3 -4 -4 -3 -3 -2 -2 -2 -2 -1 -1 -0 0 1 1 1 1 1 2 2 3 4 4
-4 -4 -4 -4 -4 -4 -5 -4 -4 -4 -4 -4 -4 -3 -3 -3 -3 -3 -3 -3 -3 -3 -3 -3 -2 -1 -1 -1 -1 -0 0 0 1 1 1 1 1 2 2 3 3 4 5
-5 -4 -4 -4 -4 -4 -4 -4 -4 -4 -4 -4 -4 -3 -2 -2 -1 -2 -2 -2 -2 -2 -2 -1 -1 -0 -0 -0 0 1 1 1 1 2 1 1 1 2 2 3 4 4 5
-4 -4 -4 -4 -3 -3 -3 -3 -3 -4 -4 -4 -4 -3 -2 -1 -1 -1 -1 -1 -1 -1 -1 -1 -0 1 1 1 1 2 2 2 2 2 2 1 2 2 2 3 4 5 5
-4 -4 -4 -3 -2 -2 -2 -2 -3 -3 -3 -4 -4 -3 -3 -2 -1 -1 -1 -1 -1 -1 -0 -0 0 1 2 2 2 2 2 2 2 2 2 2 2 2 3 3 4 5 5
-2 -3 -3 -2 -2 -1 -1 -2 -2 -2 -2 -3 -3 -3 -3 -2 -1 -1 -0 -0 -0 -0 0 1 1 2 2 2 2 3 3 3 3 3 3 2 2 2 3 4 4 5 5
-1 -1 -2 -2 -2 -1 -1 -2 -2 -1 -1 -2 -2 -2 -2 -1 -1 -0 -0 0 0 0 1 1 2 2 2 2 2 3 3 4 4 4 3 3 3 3 3 4 4 5 5
-0 -0 -1 -2 -2 -1 -1 -1 -1 -1 -1 -1 -1 -2 -1 -1 -0 -0 -0 0 1 1 2 2 2 2 2 2 3 3 4 5 5 4 4 4 3 3 3 4 4 5 5
-0 -0 -1 -1 -2 -1 -1 -1 -1 -1 -1 -1 -1 -1 -1 -1 -0 -0 0 1 1 2 2 3 3 2 3 3 3 4 4 5 5 5 4 4 4 4 4 4 4 5 5
-0 -1 -1 -1 -1 -1 -1 -1 -1 -1 -1 -1 -1 -1 -1 -0 -0 -0 0 1 2 2 3 3 3 3 3 4 4 4 4 5 5 5 5 4 4 4 4 4 5 5 5
-0 -0 -1 -1 -1 -1 -1 -1 -1 -1 -1 -1 -1 -1 -1 -0 0 0 0 1 2 2 3 3 3 3 4 4 4 4 4 5 5 5 5 5 5 5 5 5 5 5 5
0 -0 -1 -1 -1 -1 -1 -1 -0 -0 -1 -1 -1 -1 -0 0 1 1 1 1 2 2 3 4 4 4 4 4 5 4 5 5 6 6 5 5 5 5 5 5 5 6 6
1 0 -0 -1 -1 -1 -1 -0 0 0 0 -0 -1 -0 0 1 1 1 1 1 2 3 4 4 4 4 5 5 5 5 5 6 6 6 6 5 6 6 6 6 6 6 6
1 1 -0 -1 -1 -1 -1 -0 1 1 1 1 0 0 0 1 2 2 1 2 2 3 4 4 4 4 5 5 5 5 6 6 6 6 6 6 6 6 6 6 6 6 6
2 1 0 -0 -1 -1 -1 -0 1 2 2 2 2 1 1 1 2 2 2 2 2 3 4 5 5 4 5 5 5 5 6 6 6 6 6 6 6 6 6 6 6 6 5
2 1 1 -0 -1 -1 -0 0 1 2 3 3 3 2 1 1 1 1 1 2 2 3 5 6 5 4 4 5 5 5 6 6 6 6 6 6 6 6 6 6 5 5 5
2 1 1 -0 -1 -1 -0 0 1 3 4 3 3 2 2 1 1 2 1 1 2 4 6 7 6 5 5 5 5 5 6 6 6 6 6 6 5 5 5 5 4 4 4
2 1 0 -0 -1 -1 -0 0 1 3 4 3 3 3 2 2 2 2 1 1 2 3 6 7 6 5 5 5 5 5 6 6 6 6 6 6 5 5 5 4 4 3 3